STARLINK-37212, 68566

Orbit data source: Space-Track

STARLINK-37212, 68566 is a payload satellite owned by SpaceX/Seattle (US) in LEO that was launched on Thu, 02 Apr 2026 UTC via an FALCON 9 launch vehicle from the Air Force Eastern Test Range (AFETR). Payload-class satellites include a variety of spacecraft equipped with specific instruments for various scientific and technological missions. These include communications satellites like Starlink; space stations such as the ISS; scientific satellites like the Hubble; Earth observation satellites from companies like Planet Labs, Umbra, and HawkEye 360; GPS; miniature CubeSats for education and research; and military/defense satellites.

Loading next visibility...
Identifier
68566, 2026-070AA
Orbit
LEO
Country
Flag of USUS
Related business
Manufacturer
SpaceX/Seattle
Mission
Operational spacecraft
Bus & Motor
STARLINK V2MO, Unknown motor
Mass
575 kg wet, ~530 kg dry
Launch date (UTC)
2026-04-02 (2 months ago)
Launch vehicle
FALCON 9
Launch site
Air Force Eastern Test Range (AFETR)
Object type
Payload
Rocket body
Debris
Shape & HBR
Unknown shape, 14.5 m
Radar Cross Section
RCS unknown

Expand to show TLE details & history
Last TLE update: 9 hours ago

TLE from 9 hours ago
0 STARLINK-37212
1 68566U 26070AA  26145.61590829  .00032204  00000-0  95981-3 0  9990
2 68566  53.1599   4.4629 0000955 135.1340 224.9740 15.34412402  8345
Epoch: 2026-05-25T14:46Z
TLE epoch observation values (Epoch: 2026-05-25T14:46:54.476Z)
Latitude
-0°
Longitude
-100.46523°
Altitude
464.03 km
Speed
7.635 km/s
True Right ascension
00h 17m 51s
True Declination
0° 00' 00"
Sunlit
Object was in daylight at epoch
Visualization orbit readout
Latitude
Unknown
Longitude
Unknown
Altitude
Unknown
Speed
Unknown
Apparent Right ascension
Unknown
Apparent Declination
Unknown
Sunlit
N/A
Visualization observer readout
Local Sidereal Time
09:22:41
Azimuth
Unknown
Elevation
Unknown
Doppler factor
Unknown
Orbital elements
Apogee altitude
463.577 km
Perigee altitude
462.27 km
Semi-major axis
6,841.06 km
Eccentricity
0.0001
Inclination
53.1599°
RAAN
4.4629°
Arg. of periapsis
135.134°
True anomaly
224.96627°
Mean anomaly
224.974°
Eccentric anomaly
224.97013°
Mean motion
3.83582 °/min
Orbital period
93.85 mins
BSTAR
0.00095981
Loading maneuver chart data...
Computing Atmospheric mass density...
Loading historical data...
Loading historical data...
Loading historical data...
Loading historical data...
Loading historical data...
Loading historical data...
Loading historical data...

Documentation

Showing up to 5 results
|